Wind_Speed
19 19 18 16 16 16 17 17 16 15 13 13 13 13 13 15 15 14 15 15 13 13 13 12 13 12 12 11 10 9 9 8 7 7 7 8 8 7 7 7 7 7 7 7
18 17 16 17 17 17 18 18 17 15 15 15 15 15 15 17 17 17 16 15 14 14 13 13 13 13 12 12 11 10 10 10 8 8 8 8 8 9 8 8 8 8 7 8
16 16 17 18 18 19 18 17 17 17 17 17 18 19 17 17 18 18 17 17 15 15 15 15 15 14 13 12 12 12 10 10 10 10 9 9 9 10 10 10 9 8 8 9
16 17 19 19 18 18 18 17 18 19 20 20 20 21 19 18 19 19 18 18 18 17 16 16 16 15 14 13 13 13 12 12 11 12 11 11 11 11 11 10 10 10 10 10
16 17 19 19 18 18 18 18 20 21 22 22 21 22 21 21 21 20 19 19 19 17 17 16 16 15 15 15 15 14 14 13 12 12 13 13 13 13 12 11 11 12 12 11
16 18 19 18 18 19 19 19 21 23 24 25 23 24 25 23 22 21 21 21 21 20 18 17 16 16 16 16 16 15 16 15 14 14 14 14 14 14 13 13 13 13 13 13
17 18 18 19 19 20 20 21 22 24 25 24 23 26 26 25 24 24 23 22 22 21 19 17 16 16 17 17 16 16 16 16 16 16 15 15 15 15 15 14 14 14 14 14
17 18 19 20 20 20 21 22 23 24 24 22 22 25 24 23 23 23 23 22 21 19 18 17 17 17 17 17 17 17 17 17 18 18 17 17 17 16 16 15 16 16 15 15
19 18 18 20 21 21 21 22 22 23 23 22 23 23 23 22 21 22 22 21 20 19 19 18 19 19 19 18 18 18 18 18 19 19 18 18 18 18 18 17 17 17 17 17
20 19 19 20 22 22 22 23 24 25 25 24 24 24 23 22 22 21 20 20 21 21 21 21 20 20 20 19 20 20 19 20 20 20 19 19 19 19 19 19 19 18 17 17
20 21 20 21 22 22 22 23 24 26 27 27 27 26 24 24 23 23 22 21 22 22 22 21 21 20 20 20 21 20 20 20 21 21 21 20 20 20 20 20 19 19 18 19
21 22 21 22 22 22 23 25 25 26 27 28 28 28 26 26 24 23 24 23 24 23 23 23 23 23 22 22 22 23 22 21 22 22 22 22 21 21 21 20 20 19 19 20
23 23 23 23 24 24 25 26 27 28 28 29 30 30 27 27 26 25 24 23 24 24 24 25 26 26 25 25 24 23 23 23 23 24 23 22 22 22 21 21 20 20 20 20
24 24 25 25 24 25 27 27 28 30 30 31 31 31 29 29 28 27 26 26 26 26 26 26 26 27 27 27 25 24 25 25 24 24 24 23 23 23 23 22 20 20 21 21
26 26 26 25 25 25 26 28 28 29 31 32 32 32 30 30 30 30 28 27 27 26 26 26 26 27 27 27 27 26 26 25 24 24 24 24 24 24 23 23 22 22 22 22
26 27 26 26 26 27 28 28 28 29 31 32 31 31 30 29 30 30 29 29 29 28 27 27 27 27 27 28 28 28 27 26 26 26 25 25 25 25 24 24 24 24 24 23
26 27 28 27 27 27 28 27 28 28 29 30 31 30 30 30 29 29 29 30 29 29 28 28 28 28 28 28 28 28 28 27 26 26 26 27 27 26 25 24 24 24 24 24
26 27 27 26 26 28 27 27 27 28 29 30 30 31 30 30 29 29 29 29 29 29 29 29 28 27 27 28 28 27 26 26 26 26 27 27 27 28 27 26 26 25 25 25
25 26 26 26 27 27 26 26 27 28 28 29 29 29 28 26 26 27 28 28 29 28 29 29 29 28 28 28 27 27 27 26 26 26 25 25 26 27 27 27 27 27 26 26
23 24 25 26 27 27 25 25 26 27 29 29 29 27 27 26 25 25 27 28 29 29 29 29 29 29 28 28 27 26 26 26 26 26 26 25 26 25 25 26 27 27 27 27
24 23 24 25 26 26 25 25 25 27 27 28 29 27 27 26 26 26 26 27 28 28 28 29 29 29 28 28 28 27 26 26 26 26 26 27 26 25 24 24 25 26 26 27
23 24 24 25 25 24 23 24 25 27 28 28 28 27 27 28 27 25 25 26 25 26 26 27 27 27 27 27 27 26 26 27 27 27 26 26 25 24 24 23 25 25 25 25
22 23 24 24 24 23 23 24 25 26 27 27 28 26 26 27 26 25 26 25 25 25 26 26 26 26 26 26 26 25 25 25 25 26 25 25 24 24 24 24 24 25 25 24
21 22 23 23 23 22 23 23 24 24 25 25 25 25 26 25 24 24 25 25 25 25 24 25 25 25 25 25 25 25 25 25 25 25 25 26 25 24 24 24 24 24 24 23
19 20 22 23 23 24 24 23 24 24 24 25 26 26 25 25 24 24 25 26 25 25 25 25 26 26 26 26 26 25 25 25 24 24 25 25 25 25 24 23 23 23 23 23
18 20 22 22 22 22 22 23 24 24 24 24 25 23 23 24 25 25 25 26 25 25 25 25 26 26 25 26 26 25 26 25 25 25 25 25 24 24 23 23 22 22 22 23
Wind_Direction
228 227 227 229 231 228 227 228 225 224 228 242 251 260 265 266 273 279 286 291 293 296 299 298 292 292 293 292 294 293 291 289 294 301 305 306 309 311 315 318 322 317 317 321
229 227 223 223 226 225 226 231 226 225 229 237 246 254 258 262 270 277 279 281 285 287 292 295 293 293 293 291 290 289 284 285 291 294 295 295 301 310 314 317 316 313 313 314
230 225 223 225 223 226 232 236 231 232 229 234 242 247 250 255 261 269 272 271 275 285 289 289 290 286 282 283 284 288 284 283 286 290 288 289 296 302 304 307 307 307 305 307
229 224 225 226 226 231 237 237 235 233 233 237 241 246 244 247 251 258 266 270 273 277 280 281 282 279 278 275 277 281 282 283 284 285 283 284 287 290 294 299 302 302 300 298
232 227 226 226 229 235 239 237 237 238 241 242 240 246 247 249 251 256 262 268 271 270 271 275 273 274 274 274 274 276 278 279 282 283 280 279 282 284 287 293 299 302 301 301
234 230 229 230 233 237 240 238 240 243 248 246 240 246 249 251 253 256 258 259 265 267 269 272 272 271 272 275 278 276 276 276 278 281 279 279 278 280 283 290 294 298 299 299
232 230 230 231 234 237 241 242 244 245 248 246 242 247 253 254 254 257 258 258 261 263 266 269 270 271 271 275 277 277 275 273 274 276 279 280 280 282 285 286 288 291 295 296
238 233 233 236 239 240 242 245 247 251 254 252 248 251 254 257 257 259 258 260 263 263 269 270 270 271 271 273 272 273 274 272 273 275 277 277 276 278 281 283 283 284 287 290
240 236 234 238 241 244 244 246 249 253 257 256 254 256 257 256 256 256 261 263 261 260 266 271 270 268 269 272 272 271 271 273 272 274 276 275 274 275 277 279 281 284 284 285
243 238 235 238 239 241 244 245 248 250 253 254 254 255 256 255 258 260 259 262 265 265 266 270 271 268 268 272 273 271 272 268 269 270 270 272 273 273 275 276 278 279 280 282
246 245 240 240 240 242 242 242 244 247 250 251 254 255 257 259 262 261 261 259 262 263 266 267 269 270 267 268 269 268 271 269 267 265 267 267 269 270 273 276 277 276 278 281
246 246 244 242 243 246 246 245 245 246 248 251 255 257 257 261 264 263 263 262 262 264 269 271 271 268 270 268 268 269 269 267 265 266 267 267 269 270 271 274 276 276 277 278
247 249 247 244 242 243 246 246 246 247 249 251 254 257 256 261 263 267 268 267 268 265 268 271 271 270 269 269 269 269 269 267 266 266 266 268 269 272 273 275 275 275 276 276
250 252 252 250 247 246 247 246 248 249 250 252 253 255 256 260 264 268 269 269 271 269 267 270 270 270 269 272 271 273 269 264 264 266 267 268 270 272 273 274 272 272 274 275
252 254 255 253 251 250 251 249 249 249 251 253 255 255 256 260 263 266 268 269 272 272 270 270 271 271 271 272 271 272 270 267 268 269 266 267 268 270 271 272 272 272 273 273
255 256 256 254 253 251 251 251 250 250 251 253 254 255 257 258 261 265 270 272 274 271 268 268 269 270 272 271 271 270 270 269 271 270 266 265 266 269 272 271 270 272 274 273
258 258 258 257 255 256 255 254 253 250 249 251 253 254 256 258 260 263 268 269 270 268 269 271 272 271 272 272 272 271 270 271 270 269 268 269 267 270 272 272 271 271 272 273
258 258 260 260 257 254 256 256 254 252 250 250 253 254 257 258 259 261 264 265 269 271 272 271 274 274 274 274 274 272 271 268 268 269 269 270 270 272 274 272 271 270 270 272
262 261 261 258 257 256 254 255 255 255 254 255 256 255 257 259 258 261 264 267 270 272 271 271 272 274 275 275 275 272 272 270 268 268 270 271 273 273 271 269 269 270 270 269
259 260 259 259 260 259 256 257 258 259 256 256 255 256 261 262 262 264 266 269 272 270 268 269 270 272 273 272 273 272 272 271 269 268 270 271 273 271 270 270 271 270 269 269
256 258 258 260 261 261 259 258 257 258 260 259 259 259 260 261 264 265 267 269 271 268 266 267 270 271 269 270 270 269 269 268 268 270 271 270 271 271 271 271 271 270 269 269
260 261 262 263 263 264 261 259 259 260 261 261 261 260 260 261 262 264 267 268 267 265 265 268 269 268 267 269 269 268 268 266 267 269 271 270 269 270 271 270 272 271 269 268
261 263 266 265 266 265 264 263 262 262 262 262 263 263 262 262 262 262 265 268 268 267 265 265 266 266 267 268 269 269 269 268 267 267 269 270 269 269 270 271 272 271 269 267
265 265 266 266 266 265 266 266 265 263 263 264 264 263 260 263 262 263 265 266 265 267 267 266 266 266 267 267 268 270 269 267 267 268 268 269 269 269 271 271 271 271 268 268
268 265 265 266 266 267 265 264 264 266 265 262 261 262 261 264 264 267 268 268 267 268 269 268 268 266 266 266 268 268 268 266 266 267 268 269 270 270 271 272 272 272 268 267
268 265 264 265 267 268 266 264 264 265 263 264 264 261 263 262 262 266 266 265 264 265 266 268 268 268 267 267 266 264 264 263 264 265 267 268 269 271 272 273 274 272 269 269
Height
5866 5869 5871 5874 5876 5878 5879 5880 5882 5883 5884 5884 5885 5885 5886 5886 5886 5886 5886 5886 5885 5885 5885 5885 5884 5885 5884 5883 5882 5882 5882 5881 5881 5880 5880 5879 5879 5878 5877 5876 5876 5875 5874 5873
5863 5865 5868 5869 5870 5872 5874 5876 5877 5879 5880 5880 5880 5881 5882 5882 5882 5882 5882 5882 5882 5881 5882 5882 5882 5882 5882 5881 5880 5880 5879 5878 5877 5877 5877 5877 5877 5876 5876 5875 5874 5873 5872 5871
5859 5862 5863 5864 5866 5868 5870 5872 5874 5875 5875 5875 5876 5877 5878 5879 5878 5879 5879 5879 5879 5879 5879 5879 5879 5879 5879 5878 5878 5878 5877 5876 5876 5876 5875 5875 5875 5874 5874 5873 5872 5871 5870 5869
5854 5857 5858 5860 5862 5863 5866 5868 5869 5870 5870 5871 5872 5872 5873 5874 5874 5875 5875 5875 5876 5876 5876 5876 5875 5875 5875 5875 5875 5875 5874 5874 5873 5873 5873 5872 5872 5872 5871 5871 5870 5869 5868 5867
5851 5852 5853 5855 5857 5859 5861 5863 5864 5865 5865 5866 5867 5867 5869 5868 5869 5870 5871 5871 5871 5872 5872 5872 5871 5871 5871 5872 5871 5871 5871 5870 5870 5870 5869 5869 5869 5869 5868 5868 5867 5867 5865 5864
5846 5848 5849 5851 5853 5854 5856 5858 5859 5860 5860 5861 5862 5862 5862 5863 5864 5865 5866 5866 5866 5867 5868 5867 5867 5867 5868 5868 5867 5868 5868 5867 5867 5866 5865 5865 5865 5865 5865 5865 5864 5864 5863 5862
5842 5844 5845 5847 5848 5850 5851 5853 5854 5854 5854 5855 5857 5856 5857 5858 5859 5860 5860 5860 5861 5862 5863 5863 5863 5863 5864 5864 5864 5864 5864 5863 5863 5862 5862 5862 5861 5861 5861 5861 5860 5860 5859 5858
5837 5840 5841 5842 5843 5845 5846 5848 5849 5849 5850 5851 5851 5850 5852 5852 5853 5854 5854 5855 5855 5856 5857 5858 5858 5859 5859 5859 5860 5860 5859 5859 5858 5858 5858 5857 5857 5857 5857 5857 5856 5856 5855 5854
5832 5835 5837 5837 5839 5840 5841 5842 5843 5844 5844 5845 5845 5845 5845 5846 5847 5848 5849 5849 5850 5850 5852 5852 5853 5854 5854 5854 5854 5854 5854 5854 5854 5853 5853 5853 5853 5852 5852 5852 5851 5851 5850 5850
5827 5830 5832 5833 5834 5835 5836 5837 5838 5838 5838 5839 5839 5839 5840 5841 5841 5843 5844 5844 5844 5845 5846 5847 5848 5849 5849 5849 5849 5849 5848 5848 5849 5849 5848 5848 5848 5847 5847 5846 5846 5845 5845 5844
5822 5825 5827 5828 5829 5830 5831 5832 5831 5832 5832 5833 5832 5835 5835 5835 5836 5837 5837 5837 5838 5839 5839 5840 5841 5842 5842 5843 5843 5843 5842 5842 5843 5843 5843 5842 5842 5842 5841 5841 5840 5840 5839 5839
5817 5818 5820 5822 5824 5824 5825 5825 5826 5826 5827 5826 5827 5830 5828 5829 5830 5830 5831 5831 5832 5832 5833 5834 5834 5835 5835 5836 5837 5836 5836 5836 5837 5837 5836 5836 5836 5836 5835 5835 5835 5834 5834 5834
5811 5812 5814 5816 5819 5819 5819 5819 5819 5819 5820 5820 5820 5824 5823 5823 5823 5824 5825 5826 5826 5826 5827 5827 5828 5828 5828 5828 5829 5829 5829 5830 5830 5830 5830 5830 5830 5829 5829 5828 5828 5828 5828 5828
5805 5806 5807 5809 5810 5811 5811 5812 5812 5812 5812 5813 5814 5815 5817 5816 5817 5818 5818 5819 5819 5819 5819 5820 5821 5821 5821 5821 5821 5822 5822 5822 5822 5823 5824 5823 5823 5823 5822 5822 5822 5821 5821 5821
5797 5798 5799 5801 5802 5803 5803 5805 5805 5805 5805 5806 5807 5808 5810 5810 5811 5811 5812 5812 5813 5812 5813 5813 5813 5813 5813 5814 5814 5814 5814 5814 5815 5816 5816 5816 5816 5816 5815 5815 5815 5815 5814 5814
5789 5791 5792 5794 5795 5795 5796 5797 5798 5798 5798 5798 5799 5801 5802 5803 5803 5804 5805 5805 5805 5805 5805 5805 5806 5806 5806 5806 5806 5807 5807 5807 5807 5808 5808 5808 5809 5808 5808 5807 5807 5807 5807 5806
5782 5783 5784 5785 5786 5786 5788 5790 5790 5790 5790 5792 5792 5795 5795 5796 5796 5797 5797 5798 5798 5798 5798 5798 5798 5798 5798 5798 5798 5798 5799 5799 5800 5800 5800 5801 5801 5801 5801 5800 5800 5800 5799 5799
5775 5775 5775 5776 5778 5778 5782 5781 5782 5782 5783 5784 5785 5786 5788 5789 5789 5790 5790 5790 5791 5790 5790 5790 5790 5790 5790 5790 5790 5790 5790 5791 5791 5792 5792 5792 5792 5792 5792 5792 5792 5792 5791 5791
5767 5768 5768 5769 5769 5770 5773 5773 5774 5774 5775 5776 5777 5779 5780 5780 5781 5782 5782 5783 5783 5782 5782 5782 5782 5782 5781 5782 5782 5782 5782 5783 5784 5784 5784 5784 5783 5783 5782 5782 5782 5783 5783 5783
5761 5761 5762 5762 5762 5763 5767 5767 5766 5768 5768 5769 5769 5771 5772 5773 5774 5775 5775 5775 5775 5774 5774 5774 5773 5773 5773 5774 5774 5774 5774 5775 5776 5776 5776 5775 5775 5773 5773 5773 5773 5774 5774 5774
5755 5755 5755 5755 5755 5755 5759 5759 5760 5761 5762 5762 5762 5763 5764 5764 5766 5767 5767 5767 5767 5766 5765 5765 5765 5764 5765 5765 5765 5766 5767 5767 5767 5767 5767 5767 5767 5766 5765 5765 5765 5766 5766 5766
5747 5748 5748 5748 5748 5752 5751 5752 5753 5753 5753 5753 5754 5755 5756 5757 5757 5758 5759 5759 5759 5758 5758 5757 5757 5756 5757 5758 5757 5758 5758 5759 5759 5760 5760 5759 5759 5759 5758 5758 5758 5758 5758 5758
5740 5741 5741 5741 5743 5743 5744 5745 5745 5745 5746 5746 5746 5747 5748 5749 5750 5751 5751 5752 5751 5751 5750 5750 5749 5749 5750 5750 5751 5751 5751 5750 5751 5752 5752 5752 5752 5752 5751 5751 5750 5750 5750 5750
5734 5734 5734 5734 5735 5736 5737 5737 5737 5738 5738 5739 5739 5739 5740 5741 5742 5742 5742 5742 5742 5742 5742 5742 5742 5742 5743 5743 5743 5743 5743 5743 5744 5744 5745 5745 5744 5744 5743 5743 5742 5742 5743 5742
5729 5728 5728 5728 5729 5730 5730 5730 5730 5730 5731 5731 5732 5732 5733 5733 5733 5734 5734 5734 5734 5734 5734 5734 5735 5735 5736 5736 5736 5736 5736 5736 5736 5737 5737 5737 5737 5737 5736 5735 5735 5735 5735 5735
5722 5722 5722 5722 5723 5723 5724 5724 5724 5724 5724 5724 5725 5725 5725 5725 5726 5726 5726 5726 5726 5726 5726 5727 5727 5727 5727 5728 5728 5728 5728 5729 5729 5729 5729 5729 5729 5729 5728 5728 5727 5727 5727 5727